Regional Weather Roundup
Issued by NWS

Home | Current Version | Previous Version | Text Only | Print | Product List | Glossary Off
Versions: 1 2 3 4 5 6 7 8 9 10 11 12 13 14 15 16 17 18 19 20 21 22 23 24 25 26 27 28 29 30 31 32 33 34 35 36 37 38 39 40 41 42 43 44 45 46 47 48 49 50

000
ASUS43 KMPX 291001
RWRMN
WEATHER ROUNDUP FOR MINNESOTA
NATIONAL WEATHER SERVICE TWIN CITIES/CHANHASSEN MN
500 AM CDT FRI AUG 29 2014


NOTE: "FAIR" INDICATES FEW OR NO CLOUDS BELOW 12,000 FEET WITH NO
SIGNIFICANT WEATHER AND/OR OBSTRUCTIONS TO VISIBILITY. N/A MEANS
CURRENT SKY AND/OR WEATHER CONDITIONS ARE NOT AVAILABLE.

MNZ060>063-068>070-291100-
   Twin Cities Metro

CITY           SKY/WX    TMP DP  RH WIND       PRES   REMARKS
TWIN CITIES    CLOUDY    68  67  96 SE8       29.81F
ST PAUL        CLOUDY    68  67  96 SE7       29.82F
CRYSTAL        LGT RAIN  69  66  90 SE8       29.78F
BLAINE         CLOUDY    70  70 100 SE12G18   29.80F
LAKEVILLE      CLOUDY    66  66 100 SE6       29.82S
EDEN PRAIRIE   CLOUDY    68  67  96 SE7       29.80S
SOUTH ST PAUL  CLOUDY    68  67  95 SE7       29.81F
LAKE ELMO      CLOUDY    66  66 100 SE8       29.83F
$$
MNZ001>005-007-008-013>017-022>024-027-028-291100-
   Northwest Minnesota

CITY           SKY/WX    TMP DP  RH WIND       PRES   REMARKS
BEMIDJI        LGT RAIN  63  62  97 SE3       29.82F
HALLOCK        CLOUDY    66  64  94 SW6       29.78S
ROSEAU         MOCLDY    64  57  77 S6        29.80S
WARROAD        CLOUDY    63  59  88 CALM      29.81S
THIEF RVR FALL CLOUDY    63  61  94 SE3       29.80F
CROOKSTON      CLOUDY    64  63  94 CALM      29.80S
FOSSTON        CLOUDY    63  61  94 CALM      29.81F
DETROIT LAKES  CLOUDY    64  63  94 SE3       29.81F
MOORHEAD       CLOUDY    66  66 100 CALM      29.78F FOG
PARK RAPIDS    LGT RAIN  64  63  96 CALM      29.81F FOG
MAHNOMEN       DRIZZLE   64  63  98 CALM      29.81S
$$
MNZ006-009>011-018-025>026-291100-
   North Central Minnesota

CITY           SKY/WX    TMP DP  RH WIND       PRES   REMARKS
BAUDETTE       CLOUDY    63  60  90 VRB3      29.81F
FLAG ISLAND    CLOUDY    66  63  88 S7        29.79S
INTL FALLS     CLOUDY    61  59  93 SE7       29.84F
WASKISH        CLOUDY    64  63  94 CALM      29.83S
BIG FORK       RAIN      61  59  94 CALM      29.85F
LONGVILLE      CLOUDY    63  63 100 CALM      29.82F FOG
GRAND RAPIDS   CLOUDY    61  57  88 CALM      29.84F
CRANE LAKE     DRIZZLE   57  57 100 CALM      29.89F
ORR            DRIZZLE   59  55  88 CALM      29.85F
COOK           DRIZZLE   59  57  94 NE3       29.88F
WALKER         CLOUDY    63  62  97 SE5       29.82F
$$
MNZ012-019>021-037-291100-
   Northeast Minnesota

CITY           SKY/WX    TMP DP  RH WIND       PRES   REMARKS
DULUTH         CLOUDY    61  58  90 E8        29.87S
ELY            CLOUDY    57  55  94 CALM      29.90S
HIBBING        CLOUDY    61  58  90 SE3       29.87S
EVELETH        CLOUDY    59  55  88 NE3       29.89R
DULUTH HARBOR  CLOUDY    63  61  94 NE13      29.87S
TWO HARBORS    CLOUDY    59  54  82 NE5       29.86F
SILVER BAY     CLOUDY    57  57 100 NE3       29.88S
GRAND MARAIS     N/A     61  55  81 NE3       29.91S
G MARAIS ARPRT CLOUDY    57  52  82 CALM      29.94S
$$
MNZ029>031-032-039>041-046>048-054>057-064-291100-
   West Central Minnesota

CITY           SKY/WX    TMP DP  RH WIND       PRES   REMARKS
FERGUS FALLS   CLOUDY    64  64 100 S6        29.79S FOG
WHEATON        CLOUDY    63  63 100 E3        29.79F FOG
MORRIS         FOG       64  64 100 SE3       29.78S VSB 1/4
ALEXANDRIA     CLOUDY    64  63  96 SE3       29.81F FOG
ELBOW LAKE     FOG       64  64  99 SE6       29.78F VSB 1
WADENA         CLOUDY    63  63 100 CALM      29.80F FOG
GLENWOOD       FOG       64  64 100 CALM      29.80S VSB 1
APPLETON       FOG       66  64  94 N6        29.77S VSB 3/4
BENSON         CLOUDY    64  64 100 NE3       29.78S FOG
ORTONVILLE     FOG       64  63  94 E3        29.77F VSB 3/4
MADISON        FOG       68  66  94 CALM      29.77S VSB 1/2
WILLMAR        FOG       66  64  94 CALM      29.79S VSB 1/2
$$
MNZ033>034-036-042>043-049>051-058-059-291100-
   Central Minnesota

CITY           SKY/WX    TMP DP  RH WIND       PRES   REMARKS
ST CLOUD       TSTM      67  65  93 E8        29.79F FOG
SAUK CENTRE    CLOUDY    64  64  99 CALM      29.80F FOG
PAYNESVILLE    CLOUDY    63  63 100 CALM      29.79F
AITKIN         CLOUDY    64  61  88 E5        29.81F HAZE
PINE RIVER     CLOUDY    63  63 100 SE3       29.85F FOG
BRAINERD       CLOUDY    63  63 100 SE5       29.82S FOG
STAPLES        CLOUDY    63  63 100 SE3       29.81F FOG
LONG PRAIRIE   DRIZZLE   63  63 100 CALM      29.80F
LITTLE FALLS   CLOUDY    63  61  94 CALM      29.80  FOG
LITCHFIELD     FOG       70  70 100 CALM      29.79S VSB 1
BUFFALO        CLOUDY    67  65  93 SE5       29.80F THUNDER
MAPLE LAKE     CLOUDY    68  67  98 SE3       29.80F THUNDER FOG
$$
MNZ037-044-045-052-053-291100-
   East Central Minnesota

CITY           SKY/WX    TMP DP  RH WIND       PRES   REMARKS
PRINCETON      CLOUDY    66  64  94 E5        29.80F
MORA           RAIN      61  59  94 E3        29.84F
CAMBRIDGE      CLOUDY    66  59  77 E5        29.80F
RUSH CITY      CLOUDY    64  62  94 SE3       29.83F THUNDER
MOOSE LAKE     CLOUDY    63  61  94 SE3       29.83F FOG
HINCKLEY       CLOUDY    63  63 100 SE8       29.84S FOG
CLOQUET        CLOUDY    61  59  94 E5        29.86F FOG
MCGREGOR       CLOUDY    63  61  94 E3        29.84F
$$
MNZ071>073-080-081-089-090-097-098-291100-
   Southwest Minnesota

CITY           SKY/WX    TMP DP  RH WIND       PRES   REMARKS
MONTEVIDEO     FOG       64  64 100 CALM      29.77F VSB 1/2
GRANITE FALLS  FOG       66  67 100 CALM      29.78S VSB 1/2
CANBY          FOG       66  65  97 CALM      29.78R VSB 1/4
MARSHALL       CLOUDY    66  64  94 CALM      29.76R
REDWOOD FALLS  CLOUDY    68  68 100 SE7       29.76S FOG
OLIVIA         FOG       70  68  94 CALM      29.77S VSB 1
PIPESTONE      CLOUDY    70  70 100 SW9       29.78F FOG
WINDOM         MOCLDY    70  66  88 S9        29.79S
WORTHINGTON    MOCLDY    68  66  94 S12       29.81R
JACKSON        MOCLDY    68  64  88 S9        29.80F
TRACY          CLOUDY    72  71  97 CALM      29.78R FOG
SLAYTON        CLOUDY    70  70 100 CALM      29.80R FOG
$$
MNZ065>067-074>077-082>085-091>093-291100-
   South Central Minnesota

CITY           SKY/WX    TMP DP  RH WIND       PRES   REMARKS
MANKATO        CLOUDY    73  64  73 S9        29.80S
NEW ULM        MOCLDY    70  70 100 S9        29.78F
ST JAMES       MOCLDY    70  66  88 S10G16    29.79F
FAIRMONT       MOCLDY    64  63  94 S13       29.81S
GLENCOE        CLOUDY    70  67  90 SE6       29.79S FOG
FARIBAULT      CLOUDY    72  66  83 S3        29.83S HAZE
OWATONNA       CLOUDY    70  66  88 S5        29.83S
WASECA         CLOUDY    66  63  88 S5        29.84S FOG
ALBERT LEA     CLOUDY    68  66  94 S9        29.82F
$$
MNZ078>079-086>088-094>096-291100-
   Southeast Minnesota

CITY           SKY/WX    TMP DP  RH WIND       PRES   REMARKS
ROCHESTER      LGT RAIN  68  66  93 SE12      29.86F
RED WING       LGT RAIN  68  66  94 SE8       29.84F
STANTON        CLOUDY    69  66  91 SE6       29.82S
DODGE CENTER   CLOUDY    68  66  94 S7        29.85S
WINONA         LGT RAIN  64  63  94 SE6       29.88F
AUSTIN         CLOUDY    68  66  94 S6        29.84F
PRESTON        LGT RAIN  66  67 100 CALM      29.89S
$$
ABBREVIATIONS USED IN REMARKS
   TC - TEMPERATURES IN CELSIUS
  WCI - WIND CHILL INDEX
   HX - HEAT INDEX
  VSB - VISIBILITY
$$


USA.gov is the U.S. government's official web portal to all federal, state and local government web resources and services.